sat.trackr.live / text

‹ back to catalog

IRIDIUM 176

NORAD 43923 · 2019-002B

PAYLOAD ACTIVE UNKNOWN

§ Identity

Operator
Country
US
Launch date
2019-01-11
Launch site
AFWTR
Launch vehicle
Mass (kg)
RCS (m²)

Purposes: comms

External: N2YO · Heavens-Above · Gunter

§ Orbital elements

Epoch: 2026-05-25T02:49:50.441088Z

Period
97.81 min
Inclination
86.6105°
Eccentricity
0.0002240
Mean motion
14.72251134 rev/d
Perigee alt
652.3 km
Apogee alt
655.5 km
Semi-major
7,032.0 km
B*
9.8860e-5
RAAN
3.1894°
Arg perigee
87.3490°
Mean anomaly
272.7983°
Rev number
39,585

§ Raw data

IRIDIUM 1761 43923U 19002B   26145.11794492  .00000648  00000+0  98860-4 0  99902 43923  86.6105   3.1894 0002240  87.3490 272.7983 14.72251134395851

JSON: /api/v1/satellites/43923 · /tle

For live sub-satellite position, see the globe view (requires WebGL).

§ Visibility from observer

Set your observer location to see the next 7 days of passes ≥ 10°. The values pass through the URL so the page stays shareable.

No JS? Fill the form by hand. The geolocation button needs JavaScript.